Time,TemperatureF,DewpointF,PressureIn,WindDirection,WindDirectionDegrees,WindSpeedMPH,WindSpeedGustMPH,Humidity,HourlyPrecipIn,Conditions,Clouds,dailyrainin,SoftwareType,DateUTC
2013-06-14 00:03:00,62.4,56.5,30.04,WSW,256,0.0,0.0,81,0.00,,,0.00,meteohub,2013-06-14 05:03:00,
2013-06-14 00:08:00,62.4,56.1,30.04,WSW,256,0.0,0.0,80,0.00,,,0.00,meteohub,2013-06-14 05:08:00,
2013-06-14 00:13:00,62.6,56.3,30.04,WSW,257,0.0,0.0,80,0.00,,,0.00,meteohub,2013-06-14 05:13:00,
2013-06-14 00:18:00,62.4,55.8,30.04,WSW,257,0.0,0.0,79,0.00,,,0.00,meteohub,2013-06-14 05:18:00,
2013-06-14 00:24:00,62.4,55.0,30.04,WSW,257,0.0,0.0,77,0.00,,,0.00,meteohub,2013-06-14 05:24:00,
2013-06-14 00:29:00,62.4,55.0,30.04,WSW,256,0.0,0.0,77,0.00,,,0.00,meteohub,2013-06-14 05:29:00,
2013-06-14 00:34:00,62.4,55.0,30.04,WSW,257,0.0,0.0,77,0.00,,,0.00,meteohub,2013-06-14 05:34:00,
2013-06-14 00:39:00,62.2,54.9,30.04,WSW,257,0.0,0.0,77,0.00,,,0.00,meteohub,2013-06-14 05:39:00,
2013-06-14 00:44:00,62.1,54.7,30.04,WSW,256,0.0,0.0,77,0.00,,,0.00,meteohub,2013-06-14 05:44:00,
2013-06-14 00:49:00,62.1,54.7,30.04,WSW,257,0.0,0.0,77,0.00,,,0.00,meteohub,2013-06-14 05:49:00,
2013-06-14 00:54:00,62.2,54.5,30.04,West,267,0.0,0.0,76,0.00,,,0.00,meteohub,2013-06-14 05:54:00,
2013-06-14 00:59:00,62.2,54.5,30.04,West,267,0.0,0.0,76,0.00,,,0.00,meteohub,2013-06-14 05:59:00,
2013-06-14 01:04:00,62.2,54.1,30.04,West,267,0.0,1.0,75,0.00,,,0.00,meteohub,2013-06-14 06:04:00,
2013-06-14 01:09:00,62.8,54.3,30.03,West,267,0.0,1.0,74,0.00,,,0.00,meteohub,2013-06-14 06:09:00,
2013-06-14 01:14:00,63.0,54.1,30.03,West,267,0.0,0.0,73,0.00,,,0.00,meteohub,2013-06-14 06:14:00,
2013-06-14 01:19:00,63.1,54.0,30.03,West,267,0.0,0.0,72,0.00,,,0.00,meteohub,2013-06-14 06:19:00,
2013-06-14 01:24:00,63.1,53.6,30.02,West,265,0.0,0.0,71,0.00,,,0.00,meteohub,2013-06-14 06:24:00,
2013-06-14 01:29:00,63.5,53.6,30.02,West,271,1.0,0.0,70,0.00,,,0.00,meteohub,2013-06-14 06:29:00,
2013-06-14 01:34:00,63.3,53.8,30.02,West,271,0.0,2.0,71,0.00,,,0.00,meteohub,2013-06-14 06:34:00,
2013-06-14 01:39:00,63.1,53.6,30.02,West,271,0.0,2.0,71,0.00,,,0.00,meteohub,2013-06-14 06:39:00,
2013-06-14 01:45:00,63.0,53.4,30.02,West,259,0.0,2.0,71,0.00,,,0.00,meteohub,2013-06-14 06:45:00,
2013-06-14 01:50:00,63.0,53.4,30.02,West,259,0.0,1.0,71,0.00,,,0.00,meteohub,2013-06-14 06:50:00,
2013-06-14 01:55:00,62.8,53.2,30.02,West,259,0.0,1.0,71,0.00,,,0.00,meteohub,2013-06-14 06:55:00,
2013-06-14 02:00:00,62.8,53.2,30.01,West,259,0.0,1.0,71,0.00,,,0.00,meteohub,2013-06-14 07:00:00,
2013-06-14 02:05:00,62.8,53.2,30.01,West,259,0.0,1.0,71,0.00,,,0.00,meteohub,2013-06-14 07:05:00,
2013-06-14 02:10:00,62.6,53.1,30.01,West,259,0.0,1.0,71,0.00,,,0.00,meteohub,2013-06-14 07:10:00,
2013-06-14 02:15:00,62.6,53.1,30.01,West,259,0.0,2.0,71,0.00,,,0.00,meteohub,2013-06-14 07:15:00,
2013-06-14 02:20:00,62.4,52.9,30.01,West,259,0.0,2.0,71,0.00,,,0.00,meteohub,2013-06-14 07:20:00,
2013-06-14 02:25:00,62.4,52.9,30.02,West,259,0.0,2.0,71,0.00,,,0.00,meteohub,2013-06-14 07:25:00,
2013-06-14 02:30:00,62.2,53.1,30.02,West,259,0.0,1.0,72,0.00,,,0.00,meteohub,2013-06-14 07:30:00,
2013-06-14 02:35:00,61.9,52.7,30.02,West,259,0.0,0.0,72,0.00,,,0.00,meteohub,2013-06-14 07:35:00,
2013-06-14 02:40:00,61.5,52.7,30.02,West,259,0.0,0.0,73,0.00,,,0.00,meteohub,2013-06-14 07:40:00,
2013-06-14 02:45:00,61.3,52.7,30.03,West,259,0.0,0.0,73,0.00,,,0.00,meteohub,2013-06-14 07:45:00,
2013-06-14 02:50:00,61.0,53.1,30.03,West,259,0.0,0.0,75,0.00,,,0.00,meteohub,2013-06-14 07:50:00,
2013-06-14 02:55:00,60.6,52.3,30.04,West,259,0.0,0.0,74,0.00,,,0.00,meteohub,2013-06-14 07:55:00,
2013-06-14 03:01:00,60.4,52.5,30.04,West,259,0.0,0.0,75,0.00,,,0.00,meteohub,2013-06-14 08:01:00,
2013-06-14 03:06:00,60.1,52.5,30.04,West,259,0.0,0.0,76,0.00,,,0.00,meteohub,2013-06-14 08:06:00,
2013-06-14 03:11:00,59.7,52.5,30.05,West,259,0.0,0.0,77,0.00,,,0.00,meteohub,2013-06-14 08:11:00,
2013-06-14 03:16:00,59.4,52.9,30.04,West,259,0.0,0.0,79,0.00,,,0.00,meteohub,2013-06-14 08:16:00,
2013-06-14 03:21:00,59.0,52.5,30.04,West,259,0.0,0.0,79,0.00,,,0.00,meteohub,2013-06-14 08:21:00,
2013-06-14 03:26:00,58.6,52.5,30.03,West,259,0.0,0.0,80,0.00,,,0.00,meteohub,2013-06-14 08:26:00,
2013-06-14 03:31:00,58.5,52.3,30.03,West,259,0.0,0.0,80,0.00,,,0.00,meteohub,2013-06-14 08:31:00,
2013-06-14 03:36:00,58.3,52.5,30.03,West,259,0.0,0.0,81,0.00,,,0.00,meteohub,2013-06-14 08:36:00,
2013-06-14 03:41:00,57.9,52.2,30.03,West,259,0.0,0.0,81,0.00,,,0.00,meteohub,2013-06-14 08:41:00,
2013-06-14 03:46:00,57.9,52.5,30.03,West,259,0.0,0.0,82,0.00,,,0.00,meteohub,2013-06-14 08:46:00,
2013-06-14 03:51:00,57.7,52.3,30.03,West,259,0.0,0.0,82,0.00,,,0.00,meteohub,2013-06-14 08:51:00,
2013-06-14 03:56:00,57.9,52.7,30.03,West,259,0.0,0.0,83,0.00,,,0.00,meteohub,2013-06-14 08:56:00,
2013-06-14 04:01:00,57.9,52.7,30.04,West,259,0.0,0.0,83,0.00,,,0.00,meteohub,2013-06-14 09:01:00,
2013-06-14 04:07:00,58.3,53.1,30.04,West,259,0.0,0.0,83,0.00,,,0.00,meteohub,2013-06-14 09:07:00,
2013-06-14 04:12:00,58.5,53.2,30.04,West,259,0.0,0.0,83,0.00,,,0.00,meteohub,2013-06-14 09:12:00,
2013-06-14 04:17:00,58.3,52.9,30.04,West,259,0.0,0.0,82,0.00,,,0.00,meteohub,2013-06-14 09:17:00,
2013-06-14 04:22:00,58.1,52.9,30.05,West,259,0.0,0.0,83,0.00,,,0.00,meteohub,2013-06-14 09:22:00,
2013-06-14 04:27:00,57.9,52.7,30.04,West,259,0.0,0.0,83,0.00,,,0.00,meteohub,2013-06-14 09:27:00,
2013-06-14 04:32:00,57.7,52.7,30.05,West,259,0.0,0.0,83,0.00,,,0.00,meteohub,2013-06-14 09:32:00,
2013-06-14 04:37:00,57.6,52.5,30.05,West,259,0.0,0.0,83,0.00,,,0.00,meteohub,2013-06-14 09:37:00,
2013-06-14 04:42:00,57.4,52.3,30.05,West,259,0.0,0.0,83,0.00,,,0.00,meteohub,2013-06-14 09:42:00,
2013-06-14 04:47:00,57.0,52.2,30.04,West,259,0.0,0.0,84,0.00,,,0.00,meteohub,2013-06-14 09:47:00,
2013-06-14 04:52:00,56.8,52.3,30.04,West,259,0.0,0.0,85,0.00,,,0.00,meteohub,2013-06-14 09:52:00,
2013-06-14 04:57:00,56.7,52.2,30.04,West,259,0.0,0.0,85,0.00,,,0.00,meteohub,2013-06-14 09:57:00,
2013-06-14 05:02:00,56.5,52.3,30.04,West,259,0.0,0.0,86,0.00,,,0.00,meteohub,2013-06-14 10:02:00,
2013-06-14 05:07:00,56.5,52.3,30.04,West,259,0.0,0.0,86,0.00,,,0.00,meteohub,2013-06-14 10:07:00,
2013-06-14 05:12:00,56.3,52.2,30.03,West,259,0.0,0.0,86,0.00,,,0.00,meteohub,2013-06-14 10:12:00,
2013-06-14 05:17:00,56.5,52.7,30.03,West,259,0.0,0.0,87,0.00,,,0.00,meteohub,2013-06-14 10:17:00,
2013-06-14 05:22:00,56.7,52.9,30.03,West,259,0.0,0.0,87,0.00,,,0.00,meteohub,2013-06-14 10:22:00,
2013-06-14 05:27:00,56.7,52.9,30.02,West,259,0.0,0.0,87,0.00,,,0.00,meteohub,2013-06-14 10:27:00,
2013-06-14 05:32:00,57.0,53.2,30.02,West,259,0.0,0.0,87,0.00,,,0.00,meteohub,2013-06-14 10:32:00,
2013-06-14 05:37:00,57.7,54.0,30.01,West,259,0.0,0.0,87,0.00,,,0.00,meteohub,2013-06-14 10:37:00,
2013-06-14 05:42:00,58.5,54.0,30.01,WSW,244,0.0,0.0,85,0.00,,,0.00,meteohub,2013-06-14 10:42:00,
2013-06-14 05:47:00,59.0,54.1,30.00,SSE,161,0.0,1.0,84,0.00,,,0.00,meteohub,2013-06-14 10:47:00,
2013-06-14 05:52:00,59.2,53.6,30.01,SSE,161,0.0,4.0,82,0.00,,,0.00,meteohub,2013-06-14 10:52:00,
2013-06-14 05:57:00,59.5,53.8,30.00,SSE,160,0.0,4.0,81,0.00,,,0.00,meteohub,2013-06-14 10:57:00,
2013-06-14 06:02:00,59.7,54.5,30.00,SSE,161,0.0,2.0,83,0.00,,,0.00,meteohub,2013-06-14 11:02:00,
2013-06-14 06:07:00,59.9,53.8,30.00,West,279,0.0,2.0,80,0.00,,,0.00,meteohub,2013-06-14 11:07:00,
2013-06-14 06:12:00,60.3,54.1,29.99,South,176,1.0,2.0,80,0.00,,,0.00,meteohub,2013-06-14 11:12:00,
2013-06-14 06:17:00,60.4,54.0,29.99,South,172,0.0,4.0,79,0.00,,,0.00,meteohub,2013-06-14 11:17:00,
2013-06-14 06:22:00,60.8,54.0,29.99,South,172,2.0,4.0,78,0.00,,,0.00,meteohub,2013-06-14 11:22:00,
2013-06-14 06:27:00,60.8,54.0,30.00,South,172,0.0,4.0,78,0.00,,,0.00,meteohub,2013-06-14 11:27:00,
2013-06-14 06:32:00,61.0,54.1,30.00,West,263,0.0,3.0,78,0.00,,,0.00,meteohub,2013-06-14 11:32:00,
2013-06-14 06:37:00,61.0,54.1,30.01,West,263,0.0,2.0,78,0.00,,,0.00,meteohub,2013-06-14 11:37:00,
2013-06-14 06:42:00,61.3,54.5,30.01,SSE,163,0.0,3.0,78,0.00,,,0.00,meteohub,2013-06-14 11:42:00,
2013-06-14 06:47:00,61.5,54.7,30.02,SSE,163,0.0,3.0,78,0.00,,,0.00,meteohub,2013-06-14 11:47:00,
2013-06-14 06:52:00,61.7,55.0,30.03,SSE,163,0.0,3.0,79,0.00,,,0.00,meteohub,2013-06-14 11:52:00,
2013-06-14 06:57:00,62.1,55.0,30.03,SSE,149,2.0,2.0,78,0.00,,,0.00,meteohub,2013-06-14 11:57:00,
2013-06-14 07:02:00,62.2,54.9,30.03,SSE,149,0.0,3.0,77,0.00,,,0.00,meteohub,2013-06-14 12:02:00,
2013-06-14 07:07:00,62.4,55.0,30.03,SSE,149,0.0,3.0,77,0.00,,,0.00,meteohub,2013-06-14 12:07:00,
2013-06-14 07:12:00,62.4,55.4,30.03,SSE,149,0.0,3.0,78,0.00,,,0.00,meteohub,2013-06-14 12:12:00,
2013-06-14 07:17:00,62.2,55.2,30.03,SSE,149,0.0,3.0,78,0.00,,,0.00,meteohub,2013-06-14 12:17:00,
2013-06-14 07:22:00,62.4,55.4,30.04,SSE,149,0.0,1.0,78,0.00,,,0.00,meteohub,2013-06-14 12:22:00,
2013-06-14 07:27:00,62.4,55.4,30.04,SSE,148,0.0,3.0,78,0.00,,,0.00,meteohub,2013-06-14 12:27:00,
2013-06-14 07:32:00,62.4,55.8,30.04,SSE,148,0.0,3.0,79,0.00,,,0.00,meteohub,2013-06-14 12:32:00,
2013-06-14 07:37:00,62.6,55.9,30.04,SSE,148,0.0,3.0,79,0.00,,,0.00,meteohub,2013-06-14 12:37:00,
2013-06-14 07:42:00,62.8,56.1,30.04,SSE,148,0.0,2.0,79,0.00,,,0.00,meteohub,2013-06-14 12:42:00,
2013-06-14 07:47:00,63.1,56.5,30.04,SW,230,0.0,2.0,79,0.00,,,0.00,meteohub,2013-06-14 12:47:00,
2013-06-14 07:52:00,63.9,57.2,30.04,SW,230,0.0,1.0,79,0.00,,,0.00,meteohub,2013-06-14 12:52:00,
2013-06-14 07:57:00,64.2,56.8,30.05,SW,229,0.0,1.0,77,0.00,,,0.00,meteohub,2013-06-14 12:57:00,
2013-06-14 08:02:00,64.2,56.5,30.05,SW,229,0.0,2.0,76,0.00,,,0.00,meteohub,2013-06-14 13:02:00,
2013-06-14 08:07:00,64.2,56.8,30.05,SW,228,0.0,2.0,77,0.00,,,0.00,meteohub,2013-06-14 13:07:00,
2013-06-14 08:12:00,64.2,56.8,30.05,SW,229,0.0,1.0,77,0.00,,,0.00,meteohub,2013-06-14 13:12:00,
2013-06-14 08:17:00,64.2,57.2,30.05,SW,229,0.0,1.0,78,0.00,,,0.00,meteohub,2013-06-14 13:17:00,
2013-06-14 08:22:00,64.4,57.4,30.04,SW,229,0.0,1.0,78,0.00,,,0.00,meteohub,2013-06-14 13:22:00,
2013-06-14 08:27:00,64.2,57.2,30.04,SW,229,0.0,1.0,78,0.00,,,0.00,meteohub,2013-06-14 13:27:00,
2013-06-14 08:32:00,64.0,57.0,30.04,SW,229,0.0,1.0,78,0.00,,,0.00,meteohub,2013-06-14 13:32:00,
2013-06-14 08:37:00,64.0,57.0,30.04,SW,229,0.0,1.0,78,0.00,,,0.00,meteohub,2013-06-14 13:37:00,
2013-06-14 08:42:00,64.0,57.4,30.04,SW,229,0.0,1.0,79,0.00,,,0.00,meteohub,2013-06-14 13:42:00,
2013-06-14 08:47:00,64.0,57.7,30.04,SW,227,0.0,0.0,80,0.00,,,0.00,meteohub,2013-06-14 13:47:00,
2013-06-14 08:52:00,64.0,57.4,30.03,SW,228,0.0,2.0,79,0.00,,,0.00,meteohub,2013-06-14 13:52:00,
2013-06-14 08:57:00,64.4,57.7,30.03,SW,228,0.0,2.0,79,0.00,,,0.00,meteohub,2013-06-14 13:57:00,
2013-06-14 09:02:00,65.1,58.5,30.03,SW,226,0.0,2.0,79,0.00,,,0.00,meteohub,2013-06-14 14:02:00,
2013-06-14 09:07:00,66.2,59.2,30.02,SW,226,0.0,3.0,78,0.00,,,0.00,meteohub,2013-06-14 14:07:00,
2013-06-14 09:12:00,67.1,59.4,30.02,SW,235,0.0,3.0,76,0.00,,,0.00,meteohub,2013-06-14 14:12:00,
2013-06-14 09:17:00,67.3,58.6,30.02,SW,229,0.0,4.0,74,0.00,,,0.00,meteohub,2013-06-14 14:17:00,
2013-06-14 09:22:00,67.6,58.6,30.03,WSW,238,0.0,4.0,73,0.00,,,0.00,meteohub,2013-06-14 14:22:00,
2013-06-14 09:27:00,67.8,58.5,30.03,WSW,238,0.0,4.0,72,0.00,,,0.00,meteohub,2013-06-14 14:27:00,
2013-06-14 09:32:00,68.0,59.0,30.03,ENE,62,0.0,3.0,73,0.00,,,0.00,meteohub,2013-06-14 14:32:00,
2013-06-14 09:37:00,68.4,59.0,30.03,ENE,62,0.0,3.0,72,0.00,,,0.00,meteohub,2013-06-14 14:37:00,
2013-06-14 09:42:00,69.1,60.1,30.03,NW,319,0.0,2.0,73,0.00,,,0.00,meteohub,2013-06-14 14:42:00,
2013-06-14 09:47:00,69.1,59.4,30.03,WNW,301,0.0,3.0,71,0.00,,,0.00,meteohub,2013-06-14 14:47:00,
2013-06-14 09:52:00,68.7,59.4,30.03,SSW,210,0.0,3.0,72,0.00,,,0.00,meteohub,2013-06-14 14:52:00,
2013-06-14 09:57:00,69.1,60.1,30.02,NNW,345,0.0,3.0,73,0.00,,,0.00,meteohub,2013-06-14 14:57:00,
2013-06-14 10:02:00,69.3,59.5,30.02,SW,227,2.0,3.0,71,0.00,,,0.00,meteohub,2013-06-14 15:02:00,
2013-06-14 10:07:00,69.8,60.4,30.02,SSE,153,0.0,3.0,72,0.00,,,0.00,meteohub,2013-06-14 15:07:00,
2013-06-14 10:12:00,70.3,60.4,30.01,SSE,153,0.0,3.0,71,0.00,,,0.00,meteohub,2013-06-14 15:12:00,
2013-06-14 10:17:00,70.5,60.3,30.01,NW,309,0.0,3.0,70,0.00,,,0.00,meteohub,2013-06-14 15:17:00,
2013-06-14 10:22:00,70.9,60.6,30.01,WSW,248,0.0,3.0,70,0.00,,,0.00,meteohub,2013-06-14 15:22:00,
2013-06-14 10:27:00,70.9,60.3,30.01,South,178,0.0,3.0,69,0.00,,,0.00,meteohub,2013-06-14 15:27:00,
2013-06-14 10:32:00,71.1,60.4,30.01,WNW,300,0.0,3.0,69,0.00,,,0.00,meteohub,2013-06-14 15:32:00,
2013-06-14 10:37:00,71.2,60.6,30.01,SW,219,0.0,3.0,69,0.00,,,0.00,meteohub,2013-06-14 15:37:00,
2013-06-14 10:42:00,72.0,61.2,30.01,NW,315,0.0,2.0,69,0.00,,,0.00,meteohub,2013-06-14 15:42:00,
2013-06-14 10:47:00,72.3,61.2,30.01,NW,307,0.0,4.0,68,0.00,,,0.00,meteohub,2013-06-14 15:47:00,
2013-06-14 10:52:00,72.9,61.3,30.01,SSW,206,1.0,4.0,67,0.00,,,0.00,meteohub,2013-06-14 15:52:00,
2013-06-14 10:57:00,73.0,61.0,30.01,West,271,0.0,4.0,66,0.00,,,0.00,meteohub,2013-06-14 15:57:00,
2013-06-14 11:02:00,73.0,61.0,30.01,NNW,327,0.0,4.0,66,0.00,,,0.00,meteohub,2013-06-14 16:02:00,
2013-06-14 11:07:00,73.4,61.0,30.01,NNW,338,0.0,4.0,65,0.00,,,0.00,meteohub,2013-06-14 16:07:00,
2013-06-14 11:12:00,73.8,60.8,30.01,SW,214,0.0,3.0,64,0.00,,,0.00,meteohub,2013-06-14 16:12:00,
2013-06-14 11:17:00,74.5,62.4,30.00,SSW,207,0.0,3.0,66,0.00,,,0.00,meteohub,2013-06-14 16:17:00,
2013-06-14 11:22:00,74.1,60.8,30.00,SSW,207,1.0,3.0,63,0.00,,,0.00,meteohub,2013-06-14 16:22:00,
2013-06-14 11:27:00,73.8,60.8,30.00,WSW,250,1.0,3.0,64,0.00,,,0.00,meteohub,2013-06-14 16:27:00,
2013-06-14 11:32:00,73.6,61.5,29.99,WSW,242,1.0,3.0,66,0.00,,,0.00,meteohub,2013-06-14 16:32:00,
2013-06-14 11:37:00,73.6,61.5,29.99,WSW,244,0.0,3.0,66,0.00,,,0.00,meteohub,2013-06-14 16:37:00,
2013-06-14 11:42:00,73.9,61.3,29.98,South,176,0.0,3.0,65,0.00,,,0.00,meteohub,2013-06-14 16:42:00,
2013-06-14 11:47:00,74.5,61.9,29.98,South,176,3.0,9.0,65,0.00,,,0.00,meteohub,2013-06-14 16:47:00,
2013-06-14 11:52:00,74.8,62.2,29.98,South,176,0.0,9.0,65,0.00,,,0.00,meteohub,2013-06-14 16:52:00,
2013-06-14 11:57:00,75.2,62.2,29.97,WNW,300,0.0,9.0,64,0.00,,,0.00,meteohub,2013-06-14 16:57:00,
2013-06-14 12:02:00,75.9,61.9,29.97,NNW,340,1.0,5.0,62,0.00,,,0.00,meteohub,2013-06-14 17:02:00,
2013-06-14 12:07:00,75.6,61.7,29.97,North,355,0.0,5.0,62,0.00,,,0.00,meteohub,2013-06-14 17:07:00,
2013-06-14 12:12:00,75.0,61.2,29.98,North,355,0.0,7.0,62,0.00,,,0.00,meteohub,2013-06-14 17:12:00,
2013-06-14 12:17:00,74.7,61.2,29.98,SSW,208,0.0,7.0,63,0.00,,,0.00,meteohub,2013-06-14 17:17:00,
2013-06-14 12:22:00,74.7,61.2,29.97,NW,319,0.0,7.0,63,0.00,,,0.00,meteohub,2013-06-14 17:22:00,
2013-06-14 12:27:00,74.7,60.8,29.96,ESE,112,0.0,5.0,62,0.00,,,0.00,meteohub,2013-06-14 17:27:00,
2013-06-14 12:32:00,74.8,61.3,29.96,South,179,1.0,5.0,63,0.00,,,0.00,meteohub,2013-06-14 17:32:00,
2013-06-14 12:37:00,74.7,61.2,29.96,South,179,0.0,5.0,63,0.00,,,0.00,meteohub,2013-06-14 17:37:00,
2013-06-14 12:42:00,74.8,61.9,29.96,SSW,211,0.0,5.0,64,0.00,,,0.00,meteohub,2013-06-14 17:42:00,
2013-06-14 12:47:00,74.7,61.2,29.96,SW,221,1.0,5.0,63,0.00,,,0.00,meteohub,2013-06-14 17:47:00,
2013-06-14 12:52:00,75.4,62.8,29.96,South,186,1.0,4.0,65,0.00,,,0.00,meteohub,2013-06-14 17:52:00,
2013-06-14 12:57:00,75.7,61.9,29.96,South,169,0.0,3.0,62,0.00,,,0.00,meteohub,2013-06-14 17:57:00,
2013-06-14 13:02:00,76.5,63.0,29.96,SW,217,0.0,4.0,63,0.00,,,0.00,meteohub,2013-06-14 18:02:00,
2013-06-14 13:07:00,76.3,61.9,29.96,South,187,1.0,4.0,61,0.00,,,0.00,meteohub,2013-06-14 18:07:00,
2013-06-14 13:12:00,75.4,61.0,29.95,SSW,192,0.0,4.0,61,0.00,,,0.00,meteohub,2013-06-14 18:12:00,
2013-06-14 13:17:00,75.0,61.2,29.96,NW,319,0.0,4.0,62,0.00,,,0.00,meteohub,2013-06-14 18:17:00,
2013-06-14 13:22:00,74.8,61.0,29.96,South,180,0.0,4.0,62,0.00,,,0.00,meteohub,2013-06-14 18:22:00,
2013-06-14 13:28:00,74.8,61.3,29.96,SE,142,0.0,9.0,63,0.00,,,0.00,meteohub,2013-06-14 18:28:00,
2013-06-14 13:33:00,74.5,61.5,29.96,South,186,0.0,9.0,64,0.00,,,0.00,meteohub,2013-06-14 18:33:00,
2013-06-14 13:38:00,74.1,61.5,29.97,WSW,240,0.0,9.0,65,0.00,,,0.00,meteohub,2013-06-14 18:38:00,
2013-06-14 13:43:00,73.9,61.0,29.97,NW,306,0.0,7.0,64,0.00,,,0.00,meteohub,2013-06-14 18:43:00,
2013-06-14 13:48:00,73.9,61.0,29.98,SW,227,2.0,7.0,64,0.00,,,0.00,meteohub,2013-06-14 18:48:00,
2013-06-14 13:53:00,74.1,60.8,29.98,SSW,200,0.0,5.0,63,0.00,,,0.00,meteohub,2013-06-14 18:53:00,
2013-06-14 13:58:00,74.1,60.8,29.98,SSW,200,0.0,5.0,63,0.00,,,0.00,meteohub,2013-06-14 18:58:00,
2013-06-14 14:03:00,74.1,61.2,29.97,West,262,0.0,3.0,64,0.00,,,0.00,meteohub,2013-06-14 19:03:00,
2013-06-14 14:08:00,74.5,61.5,29.97,NW,314,0.0,3.0,64,0.00,,,0.00,meteohub,2013-06-14 19:08:00,
2013-06-14 14:13:00,74.5,61.0,29.97,SE,146,0.0,3.0,63,0.00,,,0.00,meteohub,2013-06-14 19:13:00,
2013-06-14 14:19:00,74.5,60.6,29.97,South,191,3.0,5.0,62,0.00,,,0.00,meteohub,2013-06-14 19:19:00,
2013-06-14 14:24:00,74.5,61.5,29.96,WSW,239,0.0,5.0,64,0.00,,,0.00,meteohub,2013-06-14 19:24:00,
2013-06-14 14:29:00,74.3,61.3,29.95,WSW,253,1.0,5.0,64,0.00,,,0.00,meteohub,2013-06-14 19:29:00,
2013-06-14 14:34:00,74.3,61.3,29.95,NW,321,0.0,4.0,64,0.00,,,0.00,meteohub,2013-06-14 19:34:00,
2013-06-14 14:39:00,74.5,61.5,29.94,SW,216,1.0,4.0,64,0.00,,,0.00,meteohub,2013-06-14 19:39:00,
2013-06-14 14:44:00,74.5,61.5,29.93,SSW,200,0.0,3.0,64,0.00,,,0.00,meteohub,2013-06-14 19:44:00,
2013-06-14 14:49:00,74.7,61.7,29.93,ESE,121,0.0,3.0,64,0.00,,,0.00,meteohub,2013-06-14 19:49:00,
2013-06-14 14:54:00,74.8,61.9,29.93,SSW,197,1.0,3.0,64,0.00,,,0.00,meteohub,2013-06-14 19:54:00,
2013-06-14 14:59:00,74.7,62.6,29.93,South,172,3.0,4.0,66,0.00,,,0.00,meteohub,2013-06-14 19:59:00,
2013-06-14 15:04:00,74.8,61.9,29.92,SSE,151,1.0,4.0,64,0.00,,,0.00,meteohub,2013-06-14 20:04:00,
2013-06-14 15:09:00,75.0,61.5,29.93,SSE,150,0.0,5.0,63,0.00,,,0.00,meteohub,2013-06-14 20:09:00,
2013-06-14 15:14:00,75.0,62.4,29.93,SSE,151,0.0,5.0,65,0.00,,,0.00,meteohub,2013-06-14 20:14:00,
2013-06-14 15:19:00,75.7,62.2,29.93,SSE,150,2.0,4.0,63,0.00,,,0.00,meteohub,2013-06-14 20:19:00,
2013-06-14 15:25:00,76.3,61.9,29.92,SSW,192,0.0,7.0,61,0.00,,,0.00,meteohub,2013-06-14 20:25:00,
2013-06-14 15:30:00,77.0,62.1,29.91,SW,225,0.0,7.0,60,0.00,,,0.00,meteohub,2013-06-14 20:30:00,
2013-06-14 15:35:00,77.2,62.2,29.91,East,92,0.0,6.0,60,0.00,,,0.00,meteohub,2013-06-14 20:35:00,
2013-06-14 15:40:00,77.4,62.4,29.90,SSE,155,0.0,7.0,60,0.00,,,0.00,meteohub,2013-06-14 20:40:00,
2013-06-14 15:45:00,77.5,62.6,29.90,South,169,1.0,10.0,60,0.00,,,0.00,meteohub,2013-06-14 20:45:00,
2013-06-14 15:50:00,77.5,62.6,29.90,South,169,0.0,10.0,60,0.00,,,0.00,meteohub,2013-06-14 20:50:00,
2013-06-14 15:55:00,78.3,63.3,29.89,NNW,341,1.0,5.0,60,0.00,,,0.00,meteohub,2013-06-14 20:55:00,
2013-06-14 16:00:00,78.3,62.2,29.90,WSW,244,2.0,10.0,58,0.00,,,0.00,meteohub,2013-06-14 21:00:00,
2013-06-14 16:05:00,78.3,63.7,29.89,South,182,0.0,10.0,61,0.00,,,0.00,meteohub,2013-06-14 21:05:00,
2013-06-14 16:10:00,78.6,62.6,29.90,West,267,0.0,5.0,58,0.00,,,0.00,meteohub,2013-06-14 21:10:00,
2013-06-14 16:15:00,78.8,62.8,29.90,SW,221,0.0,5.0,58,0.00,,,0.00,meteohub,2013-06-14 21:15:00,
2013-06-14 16:20:00,78.8,62.2,29.90,South,178,2.0,5.0,57,0.00,,,0.00,meteohub,2013-06-14 21:20:00,
2013-06-14 16:25:00,79.2,62.6,29.90,WNW,283,0.0,4.0,57,0.00,,,0.00,meteohub,2013-06-14 21:25:00,
2013-06-14 16:30:00,79.2,62.6,29.90,ESE,122,0.0,7.0,57,0.00,,,0.00,meteohub,2013-06-14 21:30:00,
2013-06-14 16:36:00,79.0,62.4,29.89,NW,306,0.0,7.0,57,0.00,,,0.00,meteohub,2013-06-14 21:36:00,
2013-06-14 16:41:00,78.6,62.1,29.89,SSE,168,0.0,9.0,57,0.00,,,0.00,meteohub,2013-06-14 21:41:00,
2013-06-14 16:46:00,78.6,62.6,29.89,WNW,295,1.0,9.0,58,0.00,,,0.00,meteohub,2013-06-14 21:46:00,
2013-06-14 16:51:00,78.4,63.0,29.89,NNW,329,5.0,5.0,59,0.00,,,0.00,meteohub,2013-06-14 21:51:00,
2013-06-14 16:56:00,78.6,62.1,29.89,SSE,155,0.0,6.0,57,0.00,,,0.00,meteohub,2013-06-14 21:56:00,
2013-06-14 17:01:00,78.4,63.3,29.89,WSW,251,0.0,9.0,60,0.00,,,0.00,meteohub,2013-06-14 22:01:00,
2013-06-14 17:06:00,78.4,62.4,29.88,WNW,298,0.0,9.0,58,0.00,,,0.00,meteohub,2013-06-14 22:06:00,
2013-06-14 17:11:00,78.6,63.1,29.88,NW,304,0.0,7.0,59,0.00,,,0.00,meteohub,2013-06-14 22:11:00,
2013-06-14 17:16:00,78.6,62.1,29.88,South,169,1.0,7.0,57,0.00,,,0.00,meteohub,2013-06-14 22:16:00,
2013-06-14 17:21:00,78.1,62.1,29.87,West,273,0.0,5.0,58,0.00,,,0.00,meteohub,2013-06-14 22:21:00,
2013-06-14 17:26:00,77.7,62.2,29.87,West,263,0.0,5.0,59,0.00,,,0.00,meteohub,2013-06-14 22:26:00,
2013-06-14 17:31:00,77.5,61.5,29.87,NE,48,0.0,6.0,58,0.00,,,0.00,meteohub,2013-06-14 22:31:00,
2013-06-14 17:36:00,77.4,62.4,29.87,South,183,0.0,6.0,60,0.00,,,0.00,meteohub,2013-06-14 22:36:00,
2013-06-14 17:41:00,77.4,61.9,29.87,West,279,0.0,6.0,59,0.00,,,0.00,meteohub,2013-06-14 22:41:00,
2013-06-14 17:46:00,77.5,62.1,29.87,South,170,2.0,6.0,59,0.00,,,0.00,meteohub,2013-06-14 22:46:00,
2013-06-14 17:51:00,77.5,62.1,29.86,SSE,164,0.0,5.0,59,0.00,,,0.00,meteohub,2013-06-14 22:51:00,
2013-06-14 17:57:00,77.5,63.0,29.87,SSE,165,0.0,5.0,61,0.00,,,0.00,meteohub,2013-06-14 22:57:00,
2013-06-14 18:02:00,77.4,62.4,29.86,SSE,164,0.0,4.0,60,0.00,,,0.00,meteohub,2013-06-14 23:02:00,
2013-06-14 18:07:00,77.4,62.4,29.87,West,261,0.0,2.0,60,0.00,,,0.00,meteohub,2013-06-14 23:07:00,
2013-06-14 18:12:00,77.4,62.4,29.86,West,261,0.0,2.0,60,0.00,,,0.00,meteohub,2013-06-14 23:12:00,
2013-06-14 18:17:00,77.4,62.4,29.86,WNW,284,0.0,2.0,60,0.00,,,0.00,meteohub,2013-06-14 23:17:00,
2013-06-14 18:22:00,77.4,62.4,29.86,WSW,258,0.0,3.0,60,0.00,,,0.00,meteohub,2013-06-14 23:22:00,
2013-06-14 18:27:00,77.2,62.2,29.86,SW,222,0.0,3.0,60,0.00,,,0.00,meteohub,2013-06-14 23:27:00,
2013-06-14 18:32:00,77.0,63.0,29.86,SW,223,0.0,3.0,62,0.00,,,0.00,meteohub,2013-06-14 23:32:00,
2013-06-14 18:37:00,77.0,63.0,29.86,West,264,0.0,2.0,62,0.00,,,0.00,meteohub,2013-06-14 23:37:00,
2013-06-14 18:42:00,76.8,62.4,29.86,West,261,0.0,11.0,61,0.00,,,0.00,meteohub,2013-06-14 23:42:00,
2013-06-14 18:47:00,76.8,62.4,29.86,West,267,0.0,11.0,61,0.00,,,0.00,meteohub,2013-06-14 23:47:00,
2013-06-14 18:52:00,76.8,61.9,29.86,West,267,0.0,3.0,60,0.00,,,0.00,meteohub,2013-06-14 23:52:00,
2013-06-14 18:57:00,76.8,62.4,29.85,NW,326,0.0,3.0,61,0.00,,,0.00,meteohub,2013-06-14 23:57:00,
2013-06-14 19:02:00,76.8,62.4,29.86,NW,325,0.0,4.0,61,0.00,,,0.00,meteohub,2013-06-15 00:02:00,
2013-06-14 19:07:00,76.6,62.2,29.86,NW,315,1.0,4.0,61,0.00,,,0.00,meteohub,2013-06-15 00:07:00,
2013-06-14 19:12:00,76.6,61.7,29.86,NW,311,0.0,7.0,60,0.00,,,0.00,meteohub,2013-06-15 00:12:00,
2013-06-14 19:17:00,76.5,62.1,29.86,WSW,252,0.0,7.0,61,0.00,,,0.00,meteohub,2013-06-15 00:17:00,
2013-06-14 19:22:00,76.5,62.1,29.86,WNW,296,4.0,7.0,61,0.00,,,0.00,meteohub,2013-06-15 00:22:00,
2013-06-14 19:27:00,76.5,62.1,29.86,NW,313,0.0,5.0,61,0.00,,,0.00,meteohub,2013-06-15 00:27:00,
2013-06-14 19:32:00,76.5,62.1,29.86,NW,313,0.0,5.0,61,0.00,,,0.00,meteohub,2013-06-15 00:32:00,
2013-06-14 19:37:00,76.5,62.4,29.86,NW,315,0.0,5.0,62,0.00,,,0.00,meteohub,2013-06-15 00:37:00,
2013-06-14 19:42:00,76.3,62.2,29.86,WNW,284,0.0,2.0,62,0.00,,,0.00,meteohub,2013-06-15 00:42:00,
2013-06-14 19:47:00,76.1,62.1,29.86,SSW,193,0.0,4.0,62,0.00,,,0.00,meteohub,2013-06-15 00:47:00,
2013-06-14 19:52:00,75.7,62.2,29.86,SSW,193,0.0,4.0,63,0.00,,,0.00,meteohub,2013-06-15 00:52:00,
2013-06-14 19:57:00,75.7,62.2,29.86,WNW,294,1.0,3.0,63,0.00,,,0.00,meteohub,2013-06-15 00:57:00,
2013-06-14 20:02:00,75.6,62.1,29.86,WNW,294,0.0,3.0,63,0.00,,,0.00,meteohub,2013-06-15 01:02:00,
2013-06-14 20:07:00,75.6,62.1,29.86,NW,311,0.0,3.0,63,0.00,,,0.00,meteohub,2013-06-15 01:07:00,
2013-06-14 20:12:00,75.6,62.6,29.86,NW,311,0.0,3.0,64,0.00,,,0.00,meteohub,2013-06-15 01:12:00,
2013-06-14 20:17:00,75.2,62.2,29.86,NW,311,0.0,3.0,64,0.00,,,0.00,meteohub,2013-06-15 01:17:00,
2013-06-14 20:22:00,75.0,62.4,29.86,NW,311,0.0,1.0,65,0.00,,,0.00,meteohub,2013-06-15 01:22:00,
2013-06-14 20:27:00,75.0,62.4,29.86,NW,311,0.0,1.0,65,0.00,,,0.00,meteohub,2013-06-15 01:27:00,
2013-06-14 20:32:00,74.8,62.2,29.85,NW,311,0.0,1.0,65,0.00,,,0.00,meteohub,2013-06-15 01:32:00,
2013-06-14 20:37:00,74.8,62.2,29.85,NW,311,0.0,1.0,65,0.00,,,0.00,meteohub,2013-06-15 01:37:00,
2013-06-14 20:42:00,74.7,62.1,29.85,NW,311,0.0,1.0,65,0.00,,,0.00,meteohub,2013-06-15 01:42:00,
2013-06-14 20:47:00,74.5,62.8,29.85,NW,311,0.0,1.0,67,0.00,,,0.00,meteohub,2013-06-15 01:47:00,
2013-06-14 20:52:00,74.1,62.4,29.85,NW,311,0.0,1.0,67,0.00,,,0.00,meteohub,2013-06-15 01:52:00,
2013-06-14 20:57:00,74.1,62.1,29.84,NW,306,0.0,1.0,66,0.00,,,0.00,meteohub,2013-06-15 01:57:00,
2013-06-14 21:02:00,74.1,62.4,29.85,NW,306,0.0,3.0,67,0.00,,,0.00,meteohub,2013-06-15 02:02:00,
2013-06-14 21:07:00,74.3,62.2,29.86,NW,315,0.0,6.0,66,0.00,,,0.00,meteohub,2013-06-15 02:07:00,
2013-06-14 21:12:00,74.1,61.5,29.86,NNW,328,0.0,6.0,65,0.00,,,0.00,meteohub,2013-06-15 02:12:00,
2013-06-14 21:17:00,74.1,61.5,29.87,NW,317,1.0,6.0,65,0.00,,,0.00,meteohub,2013-06-15 02:17:00,
2013-06-14 21:22:00,74.5,61.5,29.86,South,185,0.0,2.0,64,0.00,,,0.00,meteohub,2013-06-15 02:22:00,
2013-06-14 21:27:00,74.5,61.5,29.86,NE,56,0.0,2.0,64,0.00,,,0.00,meteohub,2013-06-15 02:27:00,
2013-06-14 21:32:00,74.3,61.3,29.86,WNW,303,0.0,4.0,64,0.00,,,0.00,meteohub,2013-06-15 02:32:00,
2013-06-14 21:37:00,74.1,61.5,29.86,WNW,302,0.0,4.0,65,0.00,,,0.00,meteohub,2013-06-15 02:37:00,
2013-06-14 21:42:00,73.8,61.7,29.85,NE,54,0.0,4.0,66,0.00,,,0.00,meteohub,2013-06-15 02:42:00,
2013-06-14 21:47:00,73.6,61.5,29.85,WNW,286,0.0,3.0,66,0.00,,,0.00,meteohub,2013-06-15 02:47:00,
2013-06-14 21:52:00,73.2,61.5,29.85,South,188,3.0,3.0,67,0.00,,,0.00,meteohub,2013-06-15 02:52:00,
2013-06-14 21:57:00,73.2,61.5,29.84,South,188,0.0,3.0,67,0.00,,,0.00,meteohub,2013-06-15 02:57:00,
2013-06-14 22:02:00,73.2,61.2,29.84,SSW,211,2.0,3.0,66,0.00,,,0.00,meteohub,2013-06-15 03:02:00,
2013-06-14 22:07:00,73.0,61.0,29.83,SSW,211,0.0,3.0,66,0.00,,,0.00,meteohub,2013-06-15 03:07:00,
2013-06-14 22:12:00,72.9,61.3,29.83,SW,217,0.0,3.0,67,0.00,,,0.00,meteohub,2013-06-15 03:12:00,
2013-06-14 22:17:00,72.5,61.0,29.83,NNW,334,0.0,3.0,67,0.00,,,0.00,meteohub,2013-06-15 03:17:00,
2013-06-14 22:22:00,72.3,61.2,29.83,NW,318,0.0,4.0,68,0.00,,,0.00,meteohub,2013-06-15 03:22:00,
2013-06-14 22:27:00,72.1,61.0,29.83,NW,322,0.0,4.0,68,0.00,,,0.00,meteohub,2013-06-15 03:27:00,
2013-06-14 22:32:00,72.1,61.0,29.83,NW,323,0.0,3.0,68,0.00,,,0.00,meteohub,2013-06-15 03:32:00,
2013-06-14 22:37:00,71.8,61.0,29.83,NW,322,0.0,3.0,69,0.00,,,0.00,meteohub,2013-06-15 03:37:00,
2013-06-14 22:42:00,71.4,61.2,29.83,NW,322,0.0,1.0,70,0.00,,,0.00,meteohub,2013-06-15 03:42:00,
2013-06-14 22:47:00,71.4,61.2,29.83,NW,323,0.0,0.0,70,0.00,,,0.00,meteohub,2013-06-15 03:47:00,
2013-06-14 22:52:00,71.2,61.3,29.83,NW,323,0.0,0.0,71,0.00,,,0.00,meteohub,2013-06-15 03:52:00,
2013-06-14 22:57:00,71.1,61.5,29.83,NW,323,0.0,0.0,72,0.00,,,0.00,meteohub,2013-06-15 03:57:00,
2013-06-14 23:01:00,71.1,61.5,29.83,NW,322,0.0,0.0,72,0.00,,,0.00,meteohub,2013-06-15 04:01:00,
2013-06-14 23:02:00,71.1,61.5,29.83,NW,322,0.0,0.0,72,0.00,,,0.00,meteohub,2013-06-15 04:02:00,
2013-06-14 23:04:00,71.1,61.9,29.83,NW,323,0.0,0.0,73,0.00,,,0.00,meteohub,2013-06-15 04:04:00,
2013-06-14 23:09:00,71.1,61.5,29.83,NW,323,0.0,0.0,72,0.00,,,0.00,meteohub,2013-06-15 04:09:00,
2013-06-14 23:14:00,71.1,61.5,29.83,NW,322,0.0,0.0,72,0.00,,,0.00,meteohub,2013-06-15 04:14:00,
2013-06-14 23:19:00,71.1,61.9,29.84,NW,323,0.0,0.0,73,0.00,,,0.00,meteohub,2013-06-15 04:19:00,
2013-06-14 23:24:00,70.9,61.9,29.84,NW,323,0.0,0.0,73,0.00,,,0.00,meteohub,2013-06-15 04:24:00,
2013-06-14 23:29:00,71.1,61.5,29.85,NW,323,0.0,0.0,72,0.00,,,0.00,meteohub,2013-06-15 04:29:00,
2013-06-14 23:34:00,70.9,62.6,29.84,NW,322,0.0,0.0,75,0.00,,,0.00,meteohub,2013-06-15 04:34:00,
2013-06-14 23:39:00,69.4,62.6,29.85,NW,322,0.0,2.0,79,0.02,,,0.02,meteohub,2013-06-15 04:39:00,
2013-06-14 23:44:00,68.5,62.8,29.85,NW,322,0.0,2.0,82,0.02,,,0.02,meteohub,2013-06-15 04:44:00,
2013-06-14 23:49:00,67.8,62.8,29.85,NW,323,0.0,2.0,84,0.02,,,0.02,meteohub,2013-06-15 04:49:00,
2013-06-14 23:54:00,67.5,62.8,29.85,NW,322,0.0,1.0,85,0.02,,,0.02,meteohub,2013-06-15 04:54:00,
2013-06-14 23:59:00,67.3,63.0,29.86,NW,322,0.0,1.0,86,0.02,,,0.02,meteohub,2013-06-15 04:59:00,